When you browse on this site, cookies collect data to enhance your experience and personalize the content and advertising you see.
Visit our Privacy Policy to learn more. By continuing to use the site, you agree to this use of cookies and data.
  • In Spain
  • List of Countries
  • For 7 days
  • Water Temperature
  • Weather Map
  • Weather Widgets
  • user-avatar
    Login

    Hourly Weather Rancagua

    Today, 4 April, Saturday

    Time Temperature Precipitation Wind Pressure Humidity
    00:00 +15°C° 0 mm 1 mps 714 mmHg 39%
    01:00 +15°C° 0 mm 1 mps 714 mmHg 38%
    02:00 +14°C° 0 mm 1 mps 713 mmHg 36%
    03:00 +14°C° 0 mm 1 mps 713 mmHg 35%
    04:00 +13°C° 0 mm 0 mps 713 mmHg 34%
    05:00 +14°C° 0 mm 0 mps 713 mmHg 31%
    06:00 +15°C° 0 mm 0 mps 714 mmHg 28%
    07:00 +17°C° 0 mm 0 mps 714 mmHg 25%
    08:00 +22°C° 0 mm 1 mps 714 mmHg 21%
    09:00 +25°C° 0 mm 1 mps 715 mmHg 18%
    10:00 +28°C° 0 mm 2 mps 715 mmHg 14%
    11:00 +29°C° 0 mm 2 mps 715 mmHg 13%
    12:00 +31°C° 0 mm 2 mps 715 mmHg 12%
    13:00 +32°C° 0 mm 2 mps 715 mmHg 11%
    14:00 +31°C° 0 mm 2 mps 715 mmHg 12%
    15:00 +30°C° 0 mm 2 mps 714 mmHg 14%
    16:00 +30°C° 0 mm 2 mps 714 mmHg 15%
    17:00 +26°C° 0 mm 2 mps 714 mmHg 28%
    18:00 +22°C° 0 mm 1 mps 714 mmHg 40%
    19:00 +18°C° 0 mm 1 mps 714 mmHg 53%
    20:00 +15°C° 0 mm 0 mps 715 mmHg 57%
    21:00 +14°C° 0 mm 0 mps 715 mmHg 61%
    22:00 +13°C° 0 mm 0 mps 715 mmHg 65%
    23:00 +13°C° 0 mm 0 mps 715 mmHg 64%

    Tomorrow, 5 April, Sunday

    Time Temperature Precipitation Wind Pressure Humidity
    00:00 +13°C° 0 mm 0 mps 715 mmHg 63%
    01:00 +13°C° 0 mm 0 mps 715 mmHg 63%
    02:00 +13°C° 0 mm 0 mps 715 mmHg 63%
    03:00 +13°C° 0 mm 0 mps 715 mmHg 62%
    04:00 +12°C° 0 mm 0 mps 715 mmHg 62%
    05:00 +13°C° 0 mm 0 mps 715 mmHg 60%
    06:00 +14°C° 0 mm 0 mps 716 mmHg 57%
    07:00 +15°C° 0 mm 0 mps 717 mmHg 55%
    08:00 +20°C° 0 mm 1 mps 717 mmHg 48%
    09:00 +22°C° 0 mm 1 mps 717 mmHg 41%
    10:00 +25°C° 0 mm 2 mps 718 mmHg 34%
    11:00 +26°C° 0 mm 2 mps 718 mmHg 32%
    12:00 +27°C° 0 mm 3 mps 718 mmHg 29%
    13:00 +28°C° 0 mm 3 mps 718 mmHg 26%
    14:00 +28°C° 0 mm 3 mps 718 mmHg 25%
    15:00 +28°C° 0 mm 3 mps 718 mmHg 25%
    16:00 +28°C° 0 mm 3 mps 718 mmHg 24%
    17:00 +24°C° 0 mm 2 mps 718 mmHg 29%
    18:00 +21°C° 0 mm 1 mps 718 mmHg 34%
    19:00 +16°C° 0 mm 1 mps 718 mmHg 39%
    20:00 +16°C° 0 mm 1 mps 719 mmHg 39%
    21:00 +15°C° 0 mm 1 mps 719 mmHg 38%
    22:00 +15°C° 0 mm 1 mps 719 mmHg 38%
    23:00 +15°C° 0 mm 1 mps 719 mmHg 38%

    Day after tomorrow, 6 April, Monday

    Time Temperature Precipitation Wind Pressure Humidity
    00:00 +14°C° 0 mm 1 mps 719 mmHg 39%
    01:00 +14°C° 0 mm 1 mps 719 mmHg 39%
    02:00 +14°C° 0 mm 1 mps 719 mmHg 39%
    03:00 +14°C° 0 mm 1 mps 719 mmHg 40%
    04:00 +14°C° 0 mm 1 mps 719 mmHg 40%
    05:00 +15°C° 0 mm 1 mps 719 mmHg 37%
    06:00 +18°C° 0 mm 1 mps 719 mmHg 34%
    07:00 +19°C° 0 mm 1 mps 719 mmHg 30%
    08:00 +22°C° 0 mm 1 mps 720 mmHg 26%
    09:00 +25°C° 0 mm 2 mps 720 mmHg 22%
    10:00 +28°C° 0 mm 2 mps 720 mmHg 18%
    11:00 +30°C° 0 mm 2 mps 720 mmHg 17%
    12:00 +31°C° 0 mm 3 mps 720 mmHg 16%
    13:00 +33°C° 0 mm 3 mps 719 mmHg 16%
    14:00 +33°C° 0 mm 3 mps 719 mmHg 16%
    15:00 +31°C° 0 mm 3 mps 719 mmHg 17%
    16:00 +31°C° 0 mm 3 mps 719 mmHg 17%
    17:00 +27°C° 0 mm 2 mps 719 mmHg 23%
    18:00 +24°C° 0 mm 1 mps 719 mmHg 29%
    19:00 +18°C° 0 mm 0 mps 718 mmHg 35%
    20:00 +20°C° 0 mm 1 mps 718 mmHg 35%
    21:00 +19°C° 0 mm 1 mps 718 mmHg 35%
    22:00 +18°C° 0 mm 1 mps 718 mmHg 35%
    23:00 +18°C° 0 mm 1 mps 718 mmHg 35%

    7 April, Tuesday

    Time Temperature Precipitation Wind Pressure Humidity
    00:00 +18°C° 0 mm 1 mps 718 mmHg 35%
    01:00 +18°C° 0 mm 1 mps 717 mmHg 35%
    02:00 +16°C° 0 mm 1 mps 717 mmHg 36%
    03:00 +16°C° 0 mm 1 mps 717 mmHg 37%
    04:00 +15°C° 0 mm 0 mps 717 mmHg 37%
    05:00 +16°C° 0 mm 0 mps 717 mmHg 34%
    06:00 +18°C° 0 mm 0 mps 717 mmHg 32%
    07:00 +19°C° 0 mm 0 mps 718 mmHg 29%
    08:00 +24°C° 0 mm 1 mps 718 mmHg 25%
    09:00 +27°C° 0 mm 1 mps 718 mmHg 20%
    10:00 +30°C° 0 mm 2 mps 718 mmHg 16%
    11:00 +32°C° 0 mm 2 mps 718 mmHg 15%
    12:00 +34°C° 0 mm 2 mps 718 mmHg 15%
    13:00 +35°C° 0 mm 2 mps 718 mmHg 14%
    14:00 +35°C° 0 mm 2 mps 718 mmHg 14%
    15:00 +34°C° 0 mm 2 mps 718 mmHg 14%
    16:00 +34°C° 0 mm 2 mps 718 mmHg 15%
    17:00 +29°C° 0 mm 2 mps 718 mmHg 21%
    18:00 +25°C° 0 mm 1 mps 718 mmHg 26%
    19:00 +21°C° 0 mm 1 mps 718 mmHg 32%
    20:00 +21°C° 0 mm 1 mps 718 mmHg 33%
    21:00 +18°C° 0 mm 0 mps 718 mmHg 34%
    22:00 +17°C° 0 mm 0 mps 718 mmHg 34%
    23:00 +17°C° 0 mm 0 mps 718 mmHg 34%

    8 April, Wednesday

    Time Temperature Precipitation Wind Pressure Humidity
    00:00 +19°C° 0 mm 1 mps 717 mmHg 33%
    01:00 +19°C° 0 mm 1 mps 717 mmHg 33%
    02:00 +19°C° 0 mm 1 mps 717 mmHg 33%
    03:00 +19°C° 0 mm 1 mps 717 mmHg 32%
    04:00 +19°C° 0 mm 1 mps 717 mmHg 32%
    05:00 +20°C° 0 mm 1 mps 717 mmHg 29%
    06:00 +19°C° 0 mm 0 mps 717 mmHg 27%
    07:00 +21°C° 0 mm 0 mps 718 mmHg 24%
    08:00 +26°C° 0 mm 1 mps 718 mmHg 20%
    09:00 +29°C° 0 mm 1 mps 718 mmHg 17%
    10:00 +32°C° 0 mm 2 mps 718 mmHg 14%
    11:00 +34°C° 0 mm 2 mps 718 mmHg 13%
    12:00 +35°C° 0 mm 2 mps 718 mmHg 13%
    13:00 +36°C° 0 mm 3 mps 718 mmHg 12%
    14:00 +35°C° 0 mm 3 mps 718 mmHg 13%
    15:00 +34°C° 0 mm 3 mps 718 mmHg 14%
    16:00 +33°C° 0 mm 3 mps 718 mmHg 16%
    17:00 +28°C° 0 mm 2 mps 718 mmHg 24%
    18:00 +24°C° 0 mm 1 mps 718 mmHg 32%
    19:00 +17°C° 0 mm 0 mps 718 mmHg 41%
    20:00 +17°C° 0 mm 0 mps 718 mmHg 42%
    21:00 +16°C° 0 mm 0 mps 718 mmHg 43%
    22:00 +16°C° 0 mm 0 mps 718 mmHg 45%
    23:00 +15°C° 0 mm 0 mps 718 mmHg 45%

    9 April, Thursday

    Time Temperature Precipitation Wind Pressure Humidity
    00:00 +15°C° 0 mm 0 mps 717 mmHg 45%
    01:00 +15°C° 0 mm 0 mps 717 mmHg 45%
    02:00 +14°C° 0 mm 0 mps 717 mmHg 47%
    03:00 +14°C° 0 mm 0 mps 717 mmHg 49%
    04:00 +13°C° 0 mm 0 mps 717 mmHg 51%
    05:00 +15°C° 0 mm 0 mps 717 mmHg 46%
    06:00 +16°C° 0 mm 0 mps 718 mmHg 42%
    07:00 +18°C° 0 mm 0 mps 718 mmHg 37%
    08:00 +22°C° 0 mm 1 mps 718 mmHg 32%
    09:00 +25°C° 0 mm 1 mps 719 mmHg 27%
    10:00 +28°C° 0 mm 2 mps 719 mmHg 22%
    11:00 +29°C° 0 mm 2 mps 719 mmHg 21%
    12:00 +30°C° 0 mm 2 mps 719 mmHg 20%
    13:00 +31°C° 0 mm 3 mps 719 mmHg 19%
    14:00 +30°C° 0 mm 3 mps 719 mmHg 20%
    15:00 +29°C° 0 mm 3 mps 719 mmHg 22%
    16:00 +29°C° 0 mm 3 mps 719 mmHg 24%
    17:00 +25°C° 0 mm 2 mps 719 mmHg 34%
    18:00 +21°C° 0 mm 1 mps 719 mmHg 44%
    19:00 +16°C° 0 mm 0 mps 719 mmHg 54%
    20:00 +15°C° 0 mm 0 mps 719 mmHg 57%
    21:00 +14°C° 0 mm 0 mps 719 mmHg 60%
    22:00 +13°C° 0 mm 0 mps 719 mmHg 63%
    23:00 +13°C° 0 mm 0 mps 719 mmHg 63%
    Show more